Home > Weather > Pontiac > Past weeks

Flag for USA Past Weather in Pontiac, Michigan, USA — Yesterday and Last 2 Weeks

Now
83 °F

More clouds than sun.


Feels Like: 84 °F
Forecast: 69 / 85 °F
Wind: 9 mph from Northeast

Location: Oakland County International Airport

Current Time: Jul 28, 2016 at 2:31:20 PM

Latest Report: Jul 28, 2016 at 1:53 PM


Visibility: 10 mi

Pressure: 29.90 "Hg

Humidity: 53%

Dew Point: 64 °F

Location of PontiacLocation

Past Weather in Pontiac — Graph

°F

Pontiac Temperature Yesterday

Maximum temperature yesterday: 88 °F (at 2:53 PM)
Minimum temperature yesterday: 67 °F (at 5:53 AM)
Average temperature yesterday: 77 °F

High & Low Weather Summary for the Past Weeks

 TemperatureHumidityPressure
High92 °F (Jul 22, 3:53 PM)94% (Jul 17, 7:53 AM)30.26 "Hg (Jul 17, 7:53 AM)
Low57 °F (Jul 20, 4:53 AM)32% (Jul 23, 3:53 PM)29.75 "Hg (Jul 14, 4:53 AM)
Average76 °F67%29.99 "Hg
* Reported Jul 13 12:53 PM — Jul 28 12:53 PM, Pontiac, Weather by CustomWeather, © 2016

Note: Actual official high and low records may vary slightly from our data, if they occured in-between our weather recording intervals... More about our weather records

Advertising

Pontiac Weather History for the Previous 24 Hours

Scroll right to see more
 ConditionsComfort  
Time TempWeatherWind HumidityBarometerVisibility
12:53 PM
Thu, Jul 28
80 °FOvercast.9 mph54%29.91 "Hg10 mi
11:53 AM78 °FOvercast.6 mph58%29.90 "Hg10 mi
10:53 AM78 °FPartly sunny.8 mph56%29.91 "Hg10 mi
9:53 AM74 °FOvercast.10 mph67%29.93 "Hg10 mi
8:53 AM72 °FPartly sunny.6 mph76%29.93 "Hg10 mi
7:53 AM69 °FPartly sunny.5 mph84%29.93 "Hg10 mi
6:53 AM66 °FPassing clouds.3 mph90%29.91 "Hg10 mi
5:53 AM66 °FPassing clouds.3 mph90%29.89 "Hg10 mi
4:53 AM67 °FClear.3 mph90%29.90 "Hg10 mi
3:53 AM68 °FClear.3 mph87%29.90 "Hg10 mi
2:53 AM67 °FClear.No wind90%29.90 "Hg10 mi
1:53 AM70 °FClear.No wind84%29.91 "Hg10 mi
12:53 AM71 °FClear.No wind78%29.93 "Hg10 mi
11:53 PM
Wed, Jul 27
72 °FPassing clouds.3 mph76%29.93 "Hg10 mi
10:53 PM73 °FPassing clouds.5 mph74%29.93 "Hg10 mi
9:53 PM74 °FScattered clouds.5 mph71%29.92 "Hg10 mi
8:53 PM77 °FPartly sunny.5 mph64%29.92 "Hg10 mi
7:53 PM79 °FPartly sunny.13 mph60%29.91 "Hg10 mi
6:53 PM83 °FPartly sunny.18 mph55%29.91 "Hg10 mi
5:53 PM88 °FPartly sunny.10 mph45%29.91 "Hg10 mi
4:53 PM88 °FBroken clouds.8 mph42%29.92 "Hg10 mi
3:53 PM88 °FBroken clouds.7 mph42%29.93 "Hg10 mi
2:53 PM88 °FScattered clouds.8 mph42%29.94 "Hg10 mi
Weather by CustomWeather, © 2016

See weather overviewHow to use our weather pages